Tracking 29892 objects as of 21-Nov-2024
HD Live streaming from Space Station
objects crossing your sky now

ONEWEB-0037

Track ONEWEB-0037 now!
10-day predictions
ONEWEB-0037 is classified as:


NORAD ID: 45440
Int'l Code: 2020-020S
Perigee: 1,223.7 km
Apogee: 1,226.0 km
Inclination: 87.9 °
Period: 109.8 minutes
Semi major axis: 7595 km
RCS: Unknown
Launch date: March 21, 2020
Source: United Kingdom (UK)
Launch site: TYURATAM MISSILE AND SPACE COMPLEX (TTMTR)
Your satellite tracking list
Your tracking list is empty




NASA's NSSDC Master Catalog

Two Line Element Set (TLE):
1 45440U 20020S   24325.89684372 -.00000448  00000-0 -13013-2 0  9992
2 45440  87.8874 135.2371 0001540  95.1708 264.9596 13.11416962227559
Source of the keplerian elements: AFSPC